User: anonymous   Login
Location: Unspecified
(0.0000°N, 0.0000°E)
Time: 10:09:09
(UTC+00:00)
Language:

USA 186 - Orbit

View from above orbital plane
View from above orbital plane
View from above satellite
View from above satellite

Ground track
Ground track

The orbit data is extracted from the following two-line orbital elements,

1 28888U 05042A   14292.78075013 0.00051000  00000-0  24606-3 0    04
2 28888  96.8711 329.6711 0139757 209.4013 150.5986 15.69390089    02
Epoch (UTC): 19 October 2014 18:44:16
Eccentricity: 0.0139757
inclination: 96.8711°
perigee height: 266 km
apogee height: 455 km
right ascension of ascending node: 329.6711°
argument of perigee: 209.4013°
revolutions per day: 15.69390089
mean anomaly at epoch: 150.5986°
orbit number at epoch: 0

The dashed part of the orbit path shows where the satellite is in the earth's shadow,  

DLR